Simultaneous Nadir Overpasses (SNOs) Predictions

Prediction of SNOs between GOES-16 and AQUA Satellite Orbit:

Table of predicted SNOs for the next 14.0 days since TLE Epoch: 2/14/2020
Index Date Time (GOES-16) GOES-16 Lat,Lon AQUA Lat,Lon Distance(km) Time Diff (sec)
1 02/16/2020 06:23:34 0.06, -75.20 -0.56, -72.39 320.12 80
2 02/16/2020 18:44:58 -0.06, -75.22 -0.58, -77.58 268.92 80
3 02/18/2020 18:35:28 -0.07, -75.23 0.05, -74.62 68.32 80
4 02/20/2020 18:23:18 -0.07, -75.24 0.68, -71.67 406.18 80
5 02/21/2020 06:44:34 0.08, -75.24 0.42, -76.83 180.53 80
6 02/23/2020 06:29:44 0.08, -75.27 -0.21, -73.87 158.21 80
7 02/23/2020 18:51:08 -0.08, -75.28 -0.91, -79.06 430.32 80
8 02/25/2020 06:17:34 0.08, -75.30 -0.85, -70.92 497.72 80
9 02/25/2020 18:38:58 -0.08, -75.32 -0.27, -76.11 90.55 80
10 02/27/2020 18:29:28 -0.08, -75.36 0.37, -73.16 249.87 80
11 02/28/2020 06:50:44 0.09, -75.36 0.74, -78.31 336.13 80




NCC Satellite Simultaneous Nadir Overpasses (SNOs) Prediction Service
